| time (UTC) | temp C | wind direction | speed KPH | gust KPH | rain 1hr cm | rain 24hr cm | rain mn cm | humidity % | barometer mb |
| 20260506191559 | 13 | 17 | 6.4 | 17.7 | 0.00 | 0.03 | 0.03 | 84 | 1012.9 |
| 20260506190055 | 12 | 340 | 11.3 | 17.7 | 0.00 | 0.03 | 0.03 | 85 | 1012.9 |
| 20260506184553 | 12 | 333 | 9.7 | 14.5 | 0.00 | 0.03 | 0.03 | 84 | 1013.3 |
| 20260506183059 | 12 | 347 | 9.7 | 14.5 | 0.00 | 0.03 | 0.03 | 85 | 1013.3 |
| 20260506181604 | 12 | 319 | 4.8 | 14.5 | 0.00 | 0.03 | 0.03 | 85 | 1013.5 |
| 20260506180055 | 12 | 304 | 6.4 | 17.7 | 0.00 | 0.03 | 0.03 | 84 | 1013.2 |
| 20260506174546 | 12 | 348 | 14.5 | 29.0 | 0.00 | 0.03 | 0.03 | 85 | 1011.7 |
| 20260506173121 | 12 | 355 | 16.1 | 27.4 | 0.00 | 0.03 | 0.03 | 85 | 1011.2 |
| 20260506171555 | 12 | 325 | 11.3 | 20.9 | 0.00 | 0.03 | 0.03 | 85 | 1011.7 |
| 20260506170104 | 12 | 37 | 4.8 | 19.3 | 0.00 | 0.03 | 0.03 | 85 | 1012.6 |
| 20260506164552 | 12 | 350 | 4.8 | 16.1 | 0.00 | 0.03 | 0.03 | 85 | 1012.7 |
| 20260506163057 | 12 | 360 | 6.4 | 20.9 | 0.00 | 0.03 | 0.03 | 85 | 1012.7 |
| 20260506161553 | 12 | 34 | 6.4 | 22.5 | 0.00 | 0.03 | 0.03 | 85 | 1012.3 |
| 20260506160059 | 12 | 350 | 8.0 | 19.3 | 0.00 | 0.03 | 0.03 | 87 | 1011.9 |
| 20260506154552 | 12 | 352 | 9.7 | 24.1 | 0.00 | 0.03 | 0.03 | 88 | 1011.8 |
| 20260506153053 | 11 | 350 | 6.4 | 16.1 | 0.03 | 0.03 | 0.03 | 89 | 1012.4 |
| 20260506151555 | 11 | 0 | 4.8 | 14.5 | 0.03 | 0.03 | 0.03 | 89 | 1012.9 |
| 20260506150053 | 11 | 314 | 9.7 | 22.5 | 0.03 | 0.03 | 0.03 | 87 | 1013.0 |
| 20260506144553 | 11 | 24 | 6.4 | 22.5 | 0.03 | 0.03 | 0.03 | 85 | 1013.2 |
| 20260506143053 | 11 | 311 | 11.3 | 24.1 | 0.00 | 0.00 | 0.00 | 83 | 1014.6 |
| 20260506141551 | 11 | 346 | 9.7 | 19.3 | 0.00 | 0.00 | 0.00 | 82 | 1013.3 |
| 20260506140053 | 11 | 338 | 14.5 | 25.7 | 0.00 | 0.00 | 0.00 | 81 | 1012.1 |
| 20260506134551 | 12 | 24 | 12.9 | 27.4 | 0.00 | 0.00 | 0.00 | 79 | 1012.3 |
| 20260506133101 | 12 | 355 | 9.7 | 24.1 | 0.00 | 0.00 | 0.00 | 78 | 1011.8 |
| 20260506131602 | 12 | 332 | 14.5 | 27.4 | 0.00 | 0.00 | 0.00 | 78 | 1011.5 |
| 20260506130056 | 12 | 325 | 11.3 | 24.1 | 0.00 | 0.00 | 0.00 | 78 | 1011.1 |
| 20260506124549 | 12 | 17 | 6.4 | 16.1 | 0.00 | 0.00 | 0.00 | 78 | 1010.8 |
| 20260506123052 | 12 | 337 | 9.7 | 24.1 | 0.00 | 0.00 | 0.00 | 79 | 1010.9 |
| 20260506121550 | 12 | 343 | 11.3 | 22.5 | 0.00 | 0.00 | 0.00 | 78 | 1010.4 |
| 20260506120056 | 13 | 344 | 9.7 | 19.3 | 0.00 | 0.00 | 0.00 | 79 | 1010.3 |
| 20260506114556 | 13 | 342 | 11.3 | 25.7 | 0.00 | 0.00 | 0.00 | 79 | 1010.3 |
| 20260506113053 | 13 | 349 | 14.5 | 24.1 | 0.00 | 0.00 | 0.00 | 79 | 1010.0 |
| 20260506111547 | 13 | 341 | 11.3 | 24.1 | 0.00 | 0.00 | 0.00 | 79 | 1009.9 |
| 20260506104555 | 13 | 5 | 9.7 | 20.9 | 0.00 | 0.00 | 0.00 | 79 | 1009.3 |
| 20260506103049 | 14 | 342 | 9.7 | 19.3 | 0.00 | 0.00 | 0.00 | 79 | 1009.1 |
| 20260506101552 | 14 | 335 | 9.7 | 17.7 | 0.00 | 0.00 | 0.00 | 78 | 1008.9 |
| 20260506100049 | 14 | 333 | 8.0 | 20.9 | 0.00 | 0.00 | 0.00 | 78 | 1008.7 |
| 20260506094619 | 15 | 336 | 12.9 | 19.3 | 0.00 | 0.00 | 0.00 | 78 | 1008.6 |
| 20260506093053 | 15 | 350 | 8.0 | 19.3 | 0.00 | 0.00 | 0.00 | 78 | 1008.4 |
| 20260506091552 | 15 | 344 | 9.7 | 17.7 | 0.00 | 0.00 | 0.00 | 78 | 1008.3 |
| 20260506090052 | 15 | 360 | 6.4 | 17.7 | 0.00 | 0.00 | 0.00 | 79 | 1008.2 |
| 20260506084551 | 15 | 327 | 6.4 | 12.9 | 0.00 | 0.00 | 0.00 | 78 | 1008.2 |
| 20260506083055 | 16 | 319 | 9.7 | 17.7 | 0.00 | 0.00 | 0.00 | 78 | 1008.1 |
| 20260506081555 | 16 | 327 | 8.0 | 14.5 | 0.00 | 0.00 | 0.00 | 78 | 1008.1 |
| 20260506073050 | 16 | 336 | 6.4 | 12.9 | 0.00 | 0.00 | 0.00 | 77 | 1007.7 |
| 20260506071555 | 16 | 341 | 6.4 | 14.5 | 0.00 | 0.00 | 0.00 | 77 | 1007.7 |
| 20260506061550 | 17 | 347 | 12.9 | 20.9 | 0.00 | 0.00 | 0.00 | 77 | 1007.5 |
| 20260506060112 | 17 | 346 | 9.7 | 19.3 | 0.00 | 0.00 | 0.00 | 76 | 1007.5 |
| 20260506044610 | 19 | 339 | 6.4 | 19.3 | 0.00 | 0.00 | 0.00 | 74 | 1007.3 |
| 20260506043054 | 19 | 355 | 11.3 | 20.9 | 0.00 | 0.00 | 0.00 | 73 | 1007.4 |
| 20260506041556 | 20 | 355 | 11.3 | 20.9 | 0.00 | 0.00 | 0.00 | 72 | 1007.3 |
| 20260506040055 | 20 | 340 | 9.7 | 20.9 | 0.00 | 0.00 | 0.00 | 72 | 1007.2 |
| 20260506034553 | 20 | 341 | 8.0 | 19.3 | 0.00 | 0.00 | 0.00 | 71 | 1007.0 |
| 20260506033052 | 21 | 355 | 8.0 | 19.3 | 0.00 | 0.00 | 0.00 | 70 | 1006.7 |
| 20260506031558 | 21 | 24 | 6.4 | 14.5 | 0.00 | 0.00 | 0.00 | 69 | 1006.3 |
| 20260506030052 | 22 | 9 | 4.8 | 16.1 | 0.00 | 0.00 | 0.00 | 69 | 1006.0 |
| 20260506024558 | 22 | 24 | 11.3 | 22.5 | 0.00 | 0.00 | 0.00 | 69 | 1006.4 |
| 20260506023100 | 22 | 352 | 8.0 | 17.7 | 0.00 | 0.00 | 0.00 | 67 | 1005.6 |
| 20260506021553 | 23 | 317 | 12.9 | 17.7 | 0.00 | 0.00 | 0.00 | 67 | 1005.5 |
| 20260506020049 | 23 | 30 | 8.0 | 16.1 | 0.00 | 0.00 | 0.00 | 66 | 1004.8 |
| 20260506014550 | 24 | 355 | 8.0 | 17.7 | 0.00 | 0.00 | 0.00 | 65 | 1004.5 |
| 20260506013052 | 24 | 338 | 6.4 | 14.5 | 0.00 | 0.00 | 0.00 | 65 | 1004.2 |
| 20260506011551 | 24 | 355 | 6.4 | 17.7 | 0.00 | 0.00 | 0.00 | 65 | 1003.9 |
| 20260506010050 | 25 | 346 | 6.4 | 14.5 | 0.00 | 0.00 | 0.00 | 64 | 1004.0 |
| 20260506004553 | 25 | 19 | 4.8 | 14.5 | 0.00 | 0.00 | 0.00 | 64 | 1003.3 |
| 20260506003046 | 25 | 344 | 6.4 | 19.3 | 0.00 | 0.00 | 0.00 | 63 | 1003.4 |
| 20260506001606 | 26 | 350 | 9.7 | 22.5 | 0.00 | 0.00 | 0.00 | 64 | 1003.6 |
| 20260506000053 | 28 | 291 | 1.6 | 8.0 | 0.00 | 0.00 | 0.00 | 74 | 1003.3 |
| 20260505234554 | 28 | 184 | 3.2 | 19.3 | 0.00 | 0.00 | 0.00 | 70 | 1002.9 |
| 20260505233051 | 29 | 101 | 4.8 | 16.1 | 0.00 | 0.00 | 0.00 | 68 | 1002.7 |
| 20260505231602 | 31 | 182 | 4.8 | 16.1 | 0.00 | 0.00 | 0.00 | 65 | 1002.4 |
| 20260505230059 | 32 | 113 | 3.2 | 12.9 | 0.00 | 0.00 | 0.00 | 55 | 1002.4 |
| 20260505224556 | 32 | 180 | 3.2 | 11.3 | 0.00 | 0.00 | 0.00 | 53 | 1002.4 |
| 20260505223048 | 31 | 200 | 3.2 | 9.7 | 0.00 | 0.00 | 0.00 | 56 | 1002.3 |
| 20260505221553 | 32 | 175 | 1.6 | 12.9 | 0.00 | 0.00 | 0.00 | 56 | 1002.2 |
| 20260505220056 | 32 | 0 | 1.6 | 12.9 | 0.00 | 0.00 | 0.00 | 54 | 1002.1 |
| 20260505214552 | 32 | 132 | 1.6 | 14.5 | 0.00 | 0.00 | 0.00 | 55 | 1002.3 |
| 20260505213105 | 32 | 253 | 3.2 | 16.1 | 0.00 | 0.00 | 0.00 | 56 | 1002.3 |
| 20260505211556 | 31 | 198 | 3.2 | 12.9 | 0.00 | 0.00 | 0.00 | 56 | 1002.5 |
| 20260505210055 | 31 | 177 | 3.2 | 11.3 | 0.00 | 0.00 | 0.00 | 56 | 1002.6 |
| 20260505204555 | 32 | 240 | 3.2 | 16.1 | 0.00 | 0.00 | 0.00 | 55 | 1002.8 |
| 20260505203103 | 31 | 265 | 6.4 | 16.1 | 0.00 | 0.00 | 0.00 | 56 | 1002.8 |
| 20260505201606 | 31 | 228 | 6.4 | 19.3 | 0.00 | 0.00 | 0.00 | 58 | 1003.1 |
| 20260505200058 | 31 | 220 | 3.2 | 19.3 | 0.00 | 0.00 | 0.00 | 60 | 1003.3 |
| 20260505194559 | 31 | 199 | 1.6 | 16.1 | 0.00 | 0.00 | 0.00 | 62 | 1003.2 |
| 20260505193052 | 30 | 244 | 8.0 | 22.5 | 0.00 | 0.00 | 0.00 | 59 | 1003.4 |